DB5ZQ Weather Reports


time (UTC)temp
C
wind
direction
speed
KPH
gust
KPH
rain 1hr
cm
rain 24hr
cm
rain mn
cm
humidity
%
barometer
mb
20260510213009 17 45 0.0 3.2 0.33 0.33 0.33 76 1002.7
20260510212508 17 4 0.0 4.8 0.28 0.28 0.28 76 1002.9
20260510212008 17 33 0.0 6.4 0.23 0.23 0.23 76 1002.9
20260510211508 17 33 0.0 4.8 0.20 0.20 0.20 76 1003.0
20260510211007 17 59 1.6 9.7 0.15 0.15 0.15 75 1003.0
20260510210507 17 337 6.4 8.0 0.13 0.13 0.13 75 1003.0
20260510210007 17 70 1.6 9.7 0.10 0.10 0.10 74 1003.2
20260510205507 17 1 6.4 11.3 0.05 0.05 0.05 73 1003.3
20260510205006 18 18 3.2 9.7 0.03 0.03 0.03 71 1003.3
20260510204506 18 32 8.0 11.3 0.00 0.00 0.00 69 1003.1
20260510204006 18 7 4.8 9.7 0.00 0.00 0.00 68 1003.0
20260510203505 19 11 6.4 17.7 0.00 0.00 0.00 66 1003.0
20260510203005 20 63 9.7 27.4 0.00 0.00 0.00 65 1002.9
20260510202505 20 73 16.1 17.7 0.00 0.00 0.00 62 1003.0
20260510202005 21 16 6.4 14.5 0.00 0.00 0.00 60 1002.8
20260510201504 21 29 4.8 14.5 0.00 0.00 0.00 55 1002.6
20260510201004 21 358 6.4 16.1 0.00 0.00 0.00 53 1002.5
20260510200504 21 80 4.8 9.7 0.00 0.00 0.00 50 1002.3
20260510200004 22 344 0.0 3.2 0.00 0.00 0.00 50 1001.9
20260510195503 21 239 1.6 3.2 0.00 0.00 0.00 50 1001.4
20260510195003 21 188 0.0 4.8 0.00 0.00 0.00 50 1001.4
20260510194503 22 126 0.0 4.8 0.00 0.00 0.00 50 1001.4
20260510194002 22 239 0.0 1.6 0.00 0.00 0.00 49 1001.5
20260510193502 22 109 0.0 4.8 0.00 0.00 0.00 50 1001.5
20260510193002 22 70 1.6 1.6 0.00 0.00 0.00 50 1001.5
20260510192502 22 267 1.6 8.0 0.00 0.00 0.00 50 1001.5
20260510192001 22 88 0.0 4.8 0.00 0.00 0.00 50 1001.5
20260510191501 22 348 0.0 1.6 0.00 0.00 0.00 50 1001.6
20260510191001 22 177 1.6 3.2 0.00 0.00 0.00 50 1001.6
20260510190500 22 274 1.6 3.2 0.00 0.00 0.00 49 1001.6
20260510190000 23 171 0.0 3.2 0.00 0.00 0.00 49 1001.7
20260510185500 23 213 0.0 3.2 0.00 0.00 0.00 48 1001.8
20260510185000 23 268 3.2 3.2 0.00 0.00 0.00 48 1001.8
20260510184459 23 201 0.0 4.8 0.00 0.00 0.00 47 1001.8
20260510183959 23 225 1.6 6.4 0.00 0.00 0.00 47 1001.8
20260510183459 24 213 0.0 4.8 0.00 0.00 0.00 46 1001.8
20260510182958 24 163 0.0 3.2 0.00 0.00 0.00 45 1001.7
20260510182458 24 212 0.0 3.2 0.00 0.00 0.00 45 1001.7
20260510181958 25 262 0.0 6.4 0.00 0.00 0.00 44 1001.7
20260510181458 25 222 0.0 4.8 0.00 0.00 0.00 44 1001.6
20260510180957 25 92 0.0 3.2 0.00 0.00 0.00 43 1001.6
20260510180457 25 135 0.0 1.6 0.00 0.00 0.00 43 1001.7
20260510175957 25 120 1.6 6.4 0.00 0.00 0.00 42 1001.8
20260510175456 25 88 0.0 8.0 0.00 0.00 0.00 41 1001.8
20260510174956 25 149 4.8 6.4 0.00 0.00 0.00 41 1001.9
20260510174456 26 172 1.6 3.2 0.00 0.00 0.00 40 1001.9
20260510173956 26 130 1.6 3.2 0.00 0.00 0.00 40 1001.9
20260510173455 26 105 0.0 3.2 0.00 0.00 0.00 40 1002.0
20260510172955 26 191 0.0 4.8 0.00 0.00 0.00 40 1002.0
20260510172455 26 98 0.0 3.2 0.00 0.00 0.00 40 1002.0
20260510171954 26 285 0.0 3.2 0.00 0.00 0.00 40 1002.0
20260510171454 26 8 0.0 3.2 0.00 0.00 0.00 40 1002.1
20260510170954 26 327 3.2 3.2 0.00 0.00 0.00 39 1002.2
20260510170454 26 23 0.0 3.2 0.00 0.00 0.00 39 1002.2
20260510165953 26 203 0.0 4.8 0.00 0.00 0.00 38 1002.3
20260510165453 27 139 1.6 3.2 0.00 0.00 0.00 38 1002.3
20260510164953 27 74 0.0 3.2 0.00 0.00 0.00 37 1002.4
20260510164452 27 105 0.0 1.6 0.00 0.00 0.00 36 1002.4
20260510163952 27 135 0.0 3.2 0.00 0.00 0.00 35 1002.5
20260510163452 28 112 0.0 4.8 0.00 0.00 0.00 34 1002.5
20260510162952 28 78 1.6 6.4 0.00 0.00 0.00 33 1002.6
20260510162451 29 125 4.8 8.0 0.00 0.00 0.00 32 1002.6
20260510161951 29 177 3.2 4.8 0.00 0.00 0.00 32 1002.6
20260510161451 29 355 1.6 6.4 0.00 0.00 0.00 32 1002.7
20260510160950 28 265 1.6 4.8 0.00 0.00 0.00 33 1002.8
20260510160450 28 150 1.6 3.2 0.00 0.00 0.00 33 1002.8
20260510155950 28 281 1.6 6.4 0.00 0.00 0.00 34 1002.9
20260510155450 28 274 6.4 6.4 0.00 0.00 0.00 34 1003.0
20260510154949 28 326 1.6 6.4 0.00 0.00 0.00 35 1003.0
20260510154449 28 188 0.0 4.8 0.00 0.00 0.00 35 1003.1
20260510153949 28 142 1.6 9.7 0.00 0.00 0.00 35 1003.1
20260510153449 28 129 3.2 6.4 0.00 0.00 0.00 35 1003.2
20260510152948 28 11 0.0 4.8 0.00 0.00 0.00 35 1003.3
20260510152448 28 46 0.0 6.4 0.00 0.00 0.00 34 1003.4
20260510151948 29 73 0.0 3.2 0.00 0.00 0.00 32 1003.5
20260510151447 29 201 0.0 4.8 0.00 0.00 0.00 32 1003.6
20260510150947 29 250 0.0 4.8 0.00 0.00 0.00 31 1003.6
20260510150447 29 234 0.0 11.3 0.00 0.00 0.00 32 1003.8
20260510145947 29 146 1.6 6.4 0.00 0.00 0.00 33 1003.8
20260510145446 28 209 1.6 4.8 0.00 0.00 0.00 33 1003.9
20260510144946 28 293 3.2 9.7 0.00 0.00 0.00 33 1003.9
20260510144446 28 229 3.2 6.4 0.00 0.00 0.00 34 1004.0
20260510143945 28 78 0.0 6.4 0.00 0.00 0.00 34 1004.0
20260510143445 28 213 4.8 6.4 0.00 0.00 0.00 33 1004.1
20260510142945 28 84 0.0 6.4 0.00 0.00 0.00 35 1004.1
20260510142445 27 104 0.0 6.4 0.00 0.00 0.00 35 1004.2
20260510141944 27 68 0.0 8.0 0.00 0.00 0.00 36 1004.3
20260510141444 27 102 3.2 3.2 0.00 0.00 0.00 35 1004.3
20260510140944 27 53 0.0 6.4 0.00 0.00 0.00 35 1004.4
20260510140443 28 306 0.0 6.4 0.00 0.00 0.00 35 1004.4
20260510135943 28 319 1.6 4.8 0.00 0.00 0.00 35 1004.5
20260510135443 28 167 0.0 8.0 0.00 0.00 0.00 34 1004.6
20260510134943 28 217 1.6 6.4 0.00 0.00 0.00 33 1004.6
20260510134442 28 132 0.0 12.9 0.00 0.00 0.00 34 1004.7
20260510133942 28 237 9.7 9.7 0.00 0.00 0.00 34 1004.7
20260510133442 28 30 1.6 8.0 0.00 0.00 0.00 35 1004.7
20260510132941 28 180 0.0 6.4 0.00 0.00 0.00 35 1004.8
20260510132441 28 257 4.8 8.0 0.00 0.00 0.00 35 1004.8
20260510131941 28 295 0.0 4.8 0.00 0.00 0.00 35 1004.9
20260510131441 28 61 0.0 6.4 0.00 0.00 0.00 35 1005.0
20260510130940 27 300 1.6 6.4 0.00 0.00 0.00 36 1005.1
20260510130440 27 281 1.6 8.0 0.00 0.00 0.00 38 1005.1
20260510125940 27 109 0.0 4.8 0.00 0.00 0.00 38 1005.1
20260510125439 27 236 0.0 6.4 0.00 0.00 0.00 38 1005.2
20260510124939 27 174 0.0 6.4 0.00 0.00 0.00 37 1005.2
20260510124439 27 150 0.0 6.4 0.00 0.00 0.00 38 1005.2
20260510123939 27 241 0.0 9.7 0.00 0.00 0.00 37 1005.4
20260510123438 27 205 0.0 6.4 0.00 0.00 0.00 37 1005.5
20260510122938 27 78 0.0 9.7 0.00 0.00 0.00 38 1005.5
20260510122438 27 158 1.6 6.4 0.00 0.00 0.00 38 1005.6
20260510121937 27 142 4.8 6.4 0.00 0.00 0.00 38 1005.6
20260510121437 27 68 0.0 9.7 0.00 0.00 0.00 39 1005.7
20260510120937 27 334 1.6 4.8 0.00 0.00 0.00 39 1005.7
20260510120437 27 284 4.8 6.4 0.00 0.00 0.00 39 1005.8
20260510115936 27 120 1.6 6.4 0.00 0.00 0.00 39 1005.9
20260510115436 27 126 6.4 11.3 0.00 0.00 0.00 39 1005.9
20260510114936 26 254 6.4 6.4 0.00 0.00 0.00 40 1006.0
20260510114435 26 250 1.6 11.3 0.00 0.00 0.00 40 1006.1
20260510113935 26 129 0.0 4.8 0.00 0.00 0.00 42 1006.1
20260510113435 26 232 0.0 6.4 0.00 0.00 0.00 42 1006.2
20260510112935 25 74 1.6 9.7 0.00 0.00 0.00 43 1006.2
20260510112434 25 147 4.8 8.0 0.00 0.00 0.00 44 1006.3
20260510111934 25 127 1.6 4.8 0.00 0.00 0.00 44 1006.4
20260510111434 25 80 0.0 6.4 0.00 0.00 0.00 44 1006.4
20260510110933 25 137 0.0 11.3 0.00 0.00 0.00 44 1006.6
20260510110433 25 285 4.8 8.0 0.00 0.00 0.00 44 1006.6
20260510105933 25 136 0.0 6.4 0.00 0.00 0.00 44 1006.7
20260510105433 24 208 3.2 9.7 0.00 0.00 0.00 45 1006.7
20260510104932 24 73 0.0 11.3 0.00 0.00 0.00 45 1006.8
20260510104432 23 246 3.2 6.4 0.00 0.00 0.00 46 1006.9
20260510103932 23 317 0.0 6.4 0.00 0.00 0.00 46 1006.9
20260510103431 23 99 0.0 6.4 0.00 0.00 0.00 46 1007.0
20260510102931 23 140 0.0 6.4 0.00 0.00 0.00 47 1007.0
20260510102431 23 219 0.0 4.8 0.00 0.00 0.00 47 1007.1
20260510101931 23 129 1.6 12.9 0.00 0.00 0.00 47 1007.2
20260510101430 23 272 9.7 11.3 0.00 0.00 0.00 47 1007.2
20260510100930 22 225 0.0 11.3 0.00 0.00 0.00 49 1007.2
20260510100430 23 240 3.2 9.7 0.00 0.00 0.00 49 1007.2
20260510095930 22 170 0.0 8.0 0.00 0.00 0.00 50 1007.2
20260510095429 22 102 0.0 3.2 0.00 0.00 0.00 50 1007.4
20260510094929 22 310 0.0 8.0 0.00 0.00 0.00 52 1007.4
20260510094429 22 229 1.6 8.0 0.00 0.00 0.00 52 1007.4
20260510093928 21 253 1.6 6.4 0.00 0.00 0.00 52 1007.5
20260510093428 21 254 1.6 4.8 0.00 0.00 0.00 52 1007.5
20260510092928 21 109 1.6 6.4 0.00 0.00 0.00 53 1007.6
20260510092428 21 337 1.6 4.8 0.00 0.00 0.00 54 1007.6
20260510091927 21 262 0.0 3.2 0.00 0.00 0.00 54 1007.6
20260510091427 21 217 0.0 11.3 0.00 0.00 0.00 54 1007.7
20260510090927 21 274 3.2 12.9 0.00 0.00 0.00 55 1007.8
20260510090426 20 240 1.6 9.7 0.00 0.00 0.00 55 1007.8
20260510085926 20 146 0.0 4.8 0.00 0.00 0.00 56 1007.8
20260510085426 20 237 1.6 4.8 0.00 0.00 0.00 56 1007.9
20260510084926 20 265 1.6 4.8 0.00 0.00 0.00 56 1007.9
20260510084425 20 284 0.0 1.6 0.00 0.00 0.00 57 1007.9
20260510083925 20 303 0.0 6.4 0.00 0.00 0.00 57 1008.0
20260510083425 19 315 1.6 8.0 0.00 0.00 0.00 57 1008.0
20260510082924 19 289 0.0 11.3 0.00 0.00 0.00 57 1008.0
20260510082424 19 255 1.6 8.0 0.00 0.00 0.00 58 1008.1
20260510081924 18 104 1.6 6.4 0.00 0.00 0.00 59 1008.0
20260510081424 18 219 0.0 9.7 0.00 0.00 0.00 59 1008.1
20260510080923 18 272 3.2 8.0 0.00 0.00 0.00 59 1008.2
20260510080423 18 257 1.6 8.0 0.00 0.00 0.00 60 1008.2
20260510075923 18 262 3.2 8.0 0.00 0.00 0.00 60 1008.3
20260510075422 18 326 0.0 6.4 0.00 0.00 0.00 61 1008.4
20260510074922 18 161 0.0 8.0 0.00 0.00 0.00 61 1008.4
20260510074422 18 177 0.0 8.0 0.00 0.00 0.00 61 1008.4
20260510073922 17 274 0.0 6.4 0.00 0.00 0.00 62 1008.4
20260510073421 17 268 1.6 9.7 0.00 0.00 0.00 63 1008.4
20260510072921 17 258 0.0 9.7 0.00 0.00 0.00 63 1008.4
20260510072421 17 209 0.0 6.4 0.00 0.00 0.00 64 1008.4
20260510071920 17 201 0.0 9.7 0.00 0.00 0.00 64 1008.4
20260510071420 17 277 1.6 9.7 0.00 0.00 0.00 65 1008.4
20260510070920 17 225 4.8 6.4 0.00 0.00 0.00 66 1008.5
20260510070420 16 305 0.0 4.8 0.00 0.00 0.00 67 1008.5
20260510065919 16 219 4.8 8.0 0.00 0.00 0.00 68 1008.6
20260510065419 16 236 0.0 4.8 0.00 0.00 0.00 68 1008.5
20260510064919 16 302 0.0 11.3 0.00 0.00 0.00 68 1008.6
20260510064418 16 265 1.6 4.8 0.00 0.00 0.00 69 1008.6
20260510063918 16 281 1.6 3.2 0.00 0.00 0.00 69 1008.8
20260510063418 16 213 0.0 0.0 0.00 0.00 0.00 69 1008.8
20260510062918 16 213 0.0 8.0 0.00 0.00 0.00 69 1008.8
20260510062417 16 272 3.2 6.4 0.00 0.00 0.00 70 1008.6
20260510061917 16 248 3.2 6.4 0.00 0.00 0.00 70 1008.6
20260510061417 15 239 1.6 4.8 0.00 0.00 0.00 70 1008.6
20260510060916 15 267 1.6 3.2 0.00 0.00 0.00 70 1008.6
20260510060416 15 230 0.0 0.0 0.00 0.00 0.00 70 1008.8
20260510055916 15 230 0.0 6.4 0.00 0.00 0.00 70 1008.8
20260510055416 15 313 0.0 3.2 0.00 0.00 0.00 70 1008.8
20260510054915 15 236 3.2 4.8 0.00 0.00 0.00 70 1008.8
20260510054415 15 264 0.0 3.2 0.00 0.00 0.00 70 1008.8
20260510053915 15 123 1.6 4.8 0.00 0.00 0.00 70 1008.8
20260510053415 15 271 1.6 4.8 0.00 0.00 0.00 70 1008.9
20260510052914 15 250 0.0 3.2 0.00 0.00 0.00 70 1008.9
20260510052414 15 265 1.6 3.2 0.00 0.00 0.00 70 1008.9
20260510051914 15 264 0.0 1.6 0.00 0.00 0.00 70 1008.9
20260510051413 15 247 0.0 0.0 0.00 0.00 0.00 70 1009.0
20260510050913 15 282 0.0 1.6 0.00 0.00 0.00 70 1008.9
20260510050413 15 293 1.6 1.6 0.00 0.00 0.00 70 1009.0
20260510045913 15 291 0.0 3.2 0.00 0.00 0.00 70 1008.9
20260510045412 14 229 0.0 1.6 0.00 0.00 0.00 70 1009.0
20260510044912 14 251 1.6 4.8 0.00 0.00 0.00 70 1008.9
20260510044412 14 229 0.0 4.8 0.00 0.00 0.00 69 1009.0
20260510043911 14 243 0.0 3.2 0.00 0.00 0.00 69 1009.0
20260510043411 15 223 0.0 1.6 0.00 0.00 0.00 69 1009.1
20260510042911 14 229 0.0 1.6 0.00 0.00 0.00 69 1009.1
20260510042411 14 220 0.0 3.2 0.00 0.00 0.00 69 1009.1
20260510041910 15 206 0.0 1.6 0.00 0.00 0.00 68 1009.1
20260510041410 15 265 1.6 3.2 0.00 0.00 0.00 68 1009.2
20260510040910 15 201 0.0 0.0 0.00 0.00 0.00 68 1009.1
20260510040409 15 219 0.0 3.2 0.00 0.00 0.00 68 1009.1
20260510035909 15 261 0.0 0.0 0.00 0.00 0.00 68 1009.1
20260510035409 15 261 0.0 0.0 0.00 0.00 0.00 68 1009.1
20260510034909 15 261 0.0 0.0 0.00 0.00 0.00 68 1009.2
20260510034408 15 261 0.0 0.0 0.00 0.00 0.00 67 1009.3
20260510033908 15 261 0.0 1.6 0.00 0.00 0.00 67 1009.2
20260510033408 15 279 1.6 1.6 0.00 0.00 0.00 67 1009.2
20260510032907 15 234 0.0 0.0 0.00 0.00 0.00 67 1009.3
20260510032407 15 251 0.0 1.6 0.00 0.00 0.00 66 1009.3
20260510031907 15 232 0.0 1.6 0.00 0.00 0.00 66 1009.3
20260510031407 15 247 0.0 1.6 0.00 0.00 0.00 65 1009.4
20260510030906 16 210 0.0 4.8 0.00 0.00 0.00 65 1009.5
20260510030406 16 206 0.0 3.2 0.00 0.00 0.00 64 1009.6
20260510025906 16 237 0.0 4.8 0.00 0.00 0.00 64 1009.6
20260510025405 16 241 0.0 1.6 0.00 0.00 0.00 64 1009.6
20260510024905 16 154 0.0 0.0 0.00 0.00 0.00 64 1009.6
20260510024405 16 154 0.0 0.0 0.00 0.00 0.00 63 1009.5
20260510023905 16 154 0.0 0.0 0.00 0.00 0.00 63 1009.5
20260510023404 16 154 0.0 0.0 0.00 0.00 0.00 63 1009.4
20260510022904 16 154 0.0 0.0 0.00 0.00 0.00 63 1009.6
20260510022404 16 154 0.0 0.0 0.00 0.00 0.00 62 1009.6
20260510021903 16 154 0.0 0.0 0.00 0.00 0.00 62 1009.6
20260510021403 16 154 0.0 0.0 0.00 0.00 0.00 62 1009.7
20260510020903 16 154 0.0 0.0 0.00 0.00 0.00 62 1009.7
20260510020403 16 154 0.0 0.0 0.00 0.00 0.00 62 1009.6
20260510015902 17 154 0.0 0.0 0.00 0.00 0.00 62 1009.7
20260510015402 17 127 0.0 0.0 0.00 0.00 0.00 62 1009.7
20260510014902 16 127 0.0 0.0 0.00 0.00 0.00 62 1009.6
20260510014401 16 127 0.0 0.0 0.00 0.00 0.00 62 1009.7
20260510013901 16 127 0.0 1.6 0.00 0.00 0.00 62 1009.7
20260510013401 17 174 1.6 1.6 0.00 0.00 0.00 61 1009.7
20260510012901 17 234 0.0 0.0 0.00 0.00 0.00 61 1009.8
20260510012400 17 254 0.0 3.2 0.00 0.00 0.00 61 1009.8
20260510011900 17 78 0.0 0.0 0.00 0.00 0.00 61 1009.8
20260510011400 17 78 0.0 3.2 0.00 0.00 0.00 61 1009.9
20260510010859 17 261 0.0 1.6 0.00 0.00 0.00 61 1009.8
20260510010359 17 223 0.0 0.0 0.00 0.00 0.00 61 1009.9
20260510005859 17 223 0.0 1.6 0.00 0.00 0.00 60 1010.0
20260510005359 17 116 0.0 3.2 0.00 0.00 0.00 60 1010.0
20260510004858 17 118 0.0 0.0 0.00 0.00 0.00 60 1010.1
20260510004358 17 118 0.0 0.0 0.00 0.00 0.00 60 1010.2
20260510003858 17 118 0.0 0.0 0.00 0.00 0.00 60 1010.2
20260510003357 17 118 0.0 1.6 0.00 0.00 0.00 60 1010.3
20260510002857 17 237 0.0 1.6 0.00 0.00 0.00 60 1010.4
20260510002357 17 165 1.6 3.2 0.00 0.00 0.00 60 1010.4
20260510001857 17 125 0.0 0.0 0.00 0.00 0.00 59 1010.5
20260510001356 17 288 0.0 3.2 0.00 0.00 0.00 59 1010.6
20260510000856 17 236 0.0 0.0 0.00 0.00 0.00 59 1010.5
20260510000356 17 236 0.0 0.0 0.00 0.00 0.00 58 1010.7
20260509235856 17 236 0.0 0.0 0.00 0.00 0.00 58 1010.7
20260509235355 17 236 0.0 0.0 0.00 0.00 0.00 58 1010.8
20260509234855 17 236 0.0 0.0 0.00 0.00 0.00 57 1010.8
20260509234355 17 236 0.0 0.0 0.00 0.00 0.00 57 1010.9
20260509233854 18 236 0.0 0.0 0.00 0.00 0.00 57 1011.0
20260509233354 18 236 0.0 0.0 0.00 0.00 0.00 56 1010.9
20260509232854 18 236 0.0 0.0 0.00 0.00 0.00 56 1011.0
20260509232354 18 236 0.0 0.0 0.00 0.00 0.00 56 1011.0
20260509231853 18 127 0.0 0.0 0.00 0.00 0.00 55 1011.0
20260509231353 18 127 0.0 0.0 0.00 0.00 0.00 55 1011.0
20260509230853 18 127 0.0 0.0 0.00 0.00 0.00 55 1011.0
20260509230352 18 127 0.0 0.0 0.00 0.00 0.00 55 1011.0
20260509225852 18 127 0.0 0.0 0.00 0.00 0.00 55 1011.0
20260509225352 18 127 0.0 0.0 0.00 0.00 0.00 54 1011.0
20260509224852 18 127 0.0 0.0 0.00 0.00 0.00 54 1011.0
20260509224351 18 127 0.0 0.0 0.00 0.00 0.00 54 1011.0
20260509223851 18 127 0.0 1.6 0.00 0.00 0.00 54 1011.0
20260509223351 18 146 0.0 0.0 0.00 0.00 0.00 53 1011.1
20260509222850 18 146 0.0 0.0 0.00 0.00 0.00 53 1011.1
20260509222350 18 146 0.0 0.0 0.00 0.00 0.00 53 1011.2
20260509221850 18 146 0.0 1.6 0.00 0.00 0.00 52 1011.2
20260509221350 19 87 0.0 0.0 0.00 0.00 0.00 52 1011.3
20260509220849 19 87 0.0 1.6 0.00 0.00 0.00 52 1011.4
20260509220349 19 178 0.0 3.2 0.00 0.00 0.00 52 1011.4
20260509215849 18 84 0.0 3.2 0.00 0.00 0.00 51 1011.4
20260509215348 19 70 1.6 3.2 0.00 0.00 0.00 51 1011.4
20260509214848 19 282 0.0 3.2 0.00 0.00 0.00 51 1011.4
20260509214348 19 354 0.0 4.8 0.00 0.00 0.00 51 1011.5
20260509213848 19 144 0.0 3.2 0.00 0.00 0.00 50 1011.5
20260509213347 20 250 0.0 0.0 0.00 0.00 0.00 50 1011.6